Schneifelwetter: Wetterstation Hallschlag, 537 m . NN
Wetterdaten: Samstag, 04.11.2006
Datum Zeit Temp. A. Temp. 2 Feuchte A. Luftdruck Regen Wind Richtung Richtung Sonnenschein Helligkeit T Regen Taupunkt Windchill
04.11.2006 00:00 4,5 C 4,2 C 90 % 1028 hPa 0,0 l/m 9,4 km/h (2 Bft) W22.5 275 0 min 0 lux 0,00 min 3,0 C 2,0 C
04.11.2006 00:15 4,6 C 4,2 C 90 % 1028 hPa 0,0 l/m 7,6 km/h (2 Bft) W-NW22.5 285 0 min 0 lux 0,00 min 3,1 C 3,5 C
04.11.2006 00:30 4,6 C 4,3 C 90 % 1028 hPa 0,0 l/m 12,0 km/h (2 Bft) W-NW45 285 0 min 0 lux 0,00 min 3,1 C 0,3 C
04.11.2006 00:45 4,7 C 4,4 C 90 % 1028 hPa 0,0 l/m 11,8 km/h (2 Bft) W22.5 275 0 min 0 lux 0,00 min 3,2 C 0,5 C
04.11.2006 01:00 4,8 C 4,5 C 90 % 1028 hPa 0,0 l/m 17,3 km/h (3 Bft) W-NW45 290 0 min 0 lux 0,00 min 3,3 C -2,3 C
04.11.2006 01:16 4,8 C 4,5 C 90 % 1028 hPa 0,0 l/m 11,6 km/h (2 Bft) W-NW45 285 0 min 0 lux 0,00 min 3,3 C 0,8 C
04.11.2006 01:31 4,8 C 4,6 C 90 % 1028 hPa 0,0 l/m 12,0 km/h (2 Bft) W-NW45 285 0 min 0 lux 0,00 min 3,3 C 0,5 C
04.11.2006 01:46 4,7 C 4,1 C 90 % 1028 hPa 0,0 l/m 12,3 km/h (3 Bft) W45 280 0 min 0 lux 0,00 min 3,2 C 0,2 C
04.11.2006 02:01 4,6 C 4,0 C 90 % 1028 hPa 0,0 l/m 8,1 km/h (2 Bft) NW22.5 305 0 min 0 lux 0,00 min 3,1 C 3,1 C
04.11.2006 02:16 4,6 C 4,1 C 90 % 1028 hPa 0,0 l/m 15,3 km/h (3 Bft) NW67.5 325 0 min 0 lux 0,00 min 3,1 C -1,6 C
04.11.2006 02:31 4,4 C 3,7 C 89 % 1028 hPa 0,0 l/m 3,9 km/h (1 Bft) W-NW22.5 285 0 min 0 lux 0,00 min 2,7 C 4,4 C
04.11.2006 02:46 4,2 C 3,5 C 90 % 1028 hPa 0,0 l/m 8,0 km/h (2 Bft) W22.5 275 0 min 0 lux 0,00 min 2,7 C 2,8 C
04.11.2006 02:54 4,2 C 3,4 C 90 % 1028 hPa 0,0 l/m 5,6 km/h (1 Bft) W22.5 260 0 min 0 lux 0,00 min 2,7 C 4,2 C
04.11.2006 03:09 4,2 C 3,5 C 90 % 1028 hPa 0,0 l/m 5,1 km/h (1 Bft) NW22.5 305 0 min 0 lux 0,00 min 2,7 C 4,2 C
04.11.2006 03:24 4,3 C 3,7 C 90 % 1028 hPa 0,0 l/m 5,3 km/h (1 Bft) NW22.5 305 0 min 0 lux 0,00 min 2,8 C 4,3 C
04.11.2006 03:39 4,1 C 3,0 C 90 % 1028 hPa 0,0 l/m 9,0 km/h (2 Bft) W-NW22.5 290 0 min 0 lux 0,00 min 2,6 C 1,8 C
04.11.2006 03:54 3,8 C 2,6 C 90 % 1028 hPa 0,0 l/m 9,7 km/h (2 Bft) W67.5 275 0 min 0 lux 0,00 min 2,3 C 1,0 C
04.11.2006 04:09 3,3 C 2,0 C 89 % 1028 hPa 0,0 l/m 0,6 km/h (0 Bft) NW22.5 320 0 min 0 lux 0,00 min 1,7 C 3,3 C
04.11.2006 04:24 3,3 C 2,5 C 91 % 1029 hPa 0,0 l/m 9,9 km/h (2 Bft) W22.5 275 0 min 0 lux 0,00 min 2,0 C 0,3 C
04.11.2006 04:39 3,2 C 2,2 C 91 % 1029 hPa 0,0 l/m 0,0 km/h (0 Bft) W 270 0 min 0 lux 0,00 min 1,9 C 3,2 C
04.11.2006 04:54 3,0 C 2,1 C 91 % 1028 hPa 0,0 l/m 5,2 km/h (1 Bft) W22.5 270 0 min 0 lux 0,00 min 1,7 C 3,0 C
04.11.2006 05:09 3,2 C 2,3 C 91 % 1029 hPa 0,0 l/m 4,2 km/h (1 Bft) W-NW 285 0 min 0 lux 0,00 min 1,9 C 3,2 C
04.11.2006 05:24 3,5 C 2,7 C 92 % 1029 hPa 0,0 l/m 2,4 km/h (1 Bft) W-NW22.5 295 0 min 0 lux 0,00 min 2,3 C 3,5 C
04.11.2006 05:39 3,7 C 3,0 C 92 % 1029 hPa 0,0 l/m 3,1 km/h (1 Bft) W 270 0 min 0 lux 0,00 min 2,5 C 3,7 C
04.11.2006 05:54 4,0 C 3,3 C 92 % 1029 hPa 0,0 l/m 3,9 km/h (1 Bft) W22.5 270 0 min 0 lux 0,00 min 2,8 C 4,0 C
04.11.2006 06:09 3,9 C 2,8 C 92 % 1029 hPa 0,0 l/m 4,0 km/h (1 Bft) W-NW22.5 290 0 min 0 lux 0,00 min 2,7 C 3,9 C
04.11.2006 06:24 3,4 C 2,1 C 91 % 1029 hPa 0,0 l/m 2,1 km/h (1 Bft) W22.5 280 0 min 0 lux 0,00 min 2,1 C 3,4 C
04.11.2006 06:39 3,3 C 2,1 C 92 % 1029 hPa 0,0 l/m 4,3 km/h (1 Bft) W 275 0 min 0 lux 0,00 min 2,1 C 3,3 C
04.11.2006 06:54 3,5 C 2,4 C 92 % 1029 hPa 0,0 l/m 2,7 km/h (1 Bft) W 265 0 min 0 lux 0,00 min 2,3 C 3,5 C
04.11.2006 07:09 3,5 C 2,6 C 92 % 1029 hPa 0,0 l/m 0,7 km/h (0 Bft) W 265 0 min 55 lux 0,00 min 2,3 C 3,5 C
04.11.2006 07:24 4,0 C 3,3 C 93 % 1029 hPa 0,0 l/m 16,5 km/h (3 Bft) W22.5 275 0 min 511 lux 0,00 min 3,0 C -2,9 C
04.11.2006 07:39 4,3 C 3,6 C 93 % 1029 hPa 0,0 l/m 13,6 km/h (3 Bft) W22.5 270 0 min 1,18 klux 0,00 min 3,3 C -1,0 C
04.11.2006 08:00 4,7 C 4,0 C 93 % 1029 hPa 0,0 l/m 15,2 km/h (3 Bft) W45 275 0 min 1,81 klux 0,00 min 3,7 C -1,4 C
04.11.2006 08:15 5,1 C 4,2 C 93 % 1030 hPa 0,0 l/m 10,0 km/h (2 Bft) W22.5 280 0 min 3,66 klux 0,00 min 4,1 C 2,2 C
04.11.2006 08:30 5,4 C 4,5 C 93 % 1030 hPa 0,0 l/m 8,7 km/h (2 Bft) W22.5 270 0 min 5,23 klux 0,00 min 4,4 C 3,5 C
04.11.2006 08:45 5,7 C 5,0 C 92 % 1030 hPa 0,0 l/m 14,5 km/h (3 Bft) W22.5 270 0 min 7,69 klux 0,00 min 4,5 C 0,2 C
04.11.2006 09:00 6,0 C 5,5 C 92 % 1030 hPa 0,0 l/m 13,9 km/h (3 Bft) W22.5 275 0 min 8,26 klux 0,00 min 4,8 C 0,8 C
04.11.2006 09:15 6,1 C 5,6 C 90 % 1030 hPa 0,0 l/m 13,2 km/h (3 Bft) W22.5 270 0 min 6,83 klux 0,00 min 4,6 C 1,3 C
04.11.2006 09:30 5,9 C 5,4 C 90 % 1030 hPa 0,0 l/m 11,3 km/h (2 Bft) W22.5 275 0 min 2,06 klux 0,00 min 4,4 C 2,2 C
04.11.2006 09:45 5,8 C 5,4 C 91 % 1030 hPa 0,0 l/m 10,8 km/h (2 Bft) W-NW45 290 0 min 7,05 klux 0,00 min 4,4 C 2,4 C
04.11.2006 10:00 6,0 C 5,5 C 91 % 1030 hPa 0,0 l/m 8,8 km/h (2 Bft) W22.5 265 0 min 6,76 klux 0,00 min 4,6 C 4,0 C
04.11.2006 10:15 6,4 C 6,0 C 91 % 1030 hPa 0,0 l/m 13,5 km/h (3 Bft) W22.5 260 0 min 16,3 klux 0,00 min 5,0 C 1,5 C
04.11.2006 10:31 6,9 C 6,4 C 89 % 1030 hPa 0,0 l/m 16,3 km/h (3 Bft) W45 275 0 min 12,8 klux 0,00 min 5,2 C 0,8 C
04.11.2006 10:46 7,1 C 6,8 C 88 % 1030 hPa 0,0 l/m 15,3 km/h (3 Bft) W45 270 0 min 40,3 klux 0,00 min 5,2 C 1,5 C
04.11.2006 11:00 7,7 C 7,6 C 87 % 1030 hPa 0,0 l/m 14,3 km/h (3 Bft) W22.5 275 0 min 36,4 klux 0,00 min 5,7 C 2,7 C
04.11.2006 11:15 7,6 C 7,4 C 86 % 1030 hPa 0,0 l/m 16,4 km/h (3 Bft) W45 270 0 min 13,1 klux 0,00 min 5,4 C 1,6 C
04.11.2006 11:30 7,9 C 7,7 C 84 % 1030 hPa 0,0 l/m 18,8 km/h (3 Bft) W45 270 0 min 33,2 klux 0,00 min 5,4 C 1,0 C
04.11.2006 11:45 7,8 C 7,7 C 82 % 1030 hPa 0,0 l/m 21,1 km/h (4 Bft) W22.5 270 0 min 39,2 klux 0,00 min 4,9 C 0,1 C
04.11.2006 12:00 8,4 C 8,9 C 84 % 1030 hPa 0,0 l/m 19,6 km/h (3 Bft) W22.5 270 15 min 57,8 klux 0,00 min 5,9 C 1,4 C
04.11.2006 12:15 9,1 C 9,8 C 77 % 1030 hPa 0,0 l/m 25,6 km/h (4 Bft) W22.5 270 15 min 50,1 klux 0,00 min 5,3 C 0,5 C
04.11.2006 12:30 8,7 C 9,3 C 78 % 1029 hPa 0,0 l/m 24,6 km/h (4 Bft) W45 270 0 min 37,1 klux 0,00 min 5,1 C 0,2 C
04.11.2006 12:45 8,8 C 8,9 C 78 % 1029 hPa 0,0 l/m 27,3 km/h (4 Bft) W22.5 260 0 min 24,6 klux 0,00 min 5,2 C -0,4 C
04.11.2006 13:00 8,4 C 8,4 C 75 % 1029 hPa 0,0 l/m 23,9 km/h (4 Bft) W45 280 0 min 32,2 klux 0,00 min 4,2 C -0,0 C
04.11.2006 13:15 8,0 C 8,3 C 77 % 1029 hPa 0,0 l/m 26,9 km/h (4 Bft) W-NW45 285 0 min 21,9 klux 0,00 min 4,2 C -1,4 C
04.11.2006 13:30 7,5 C 7,7 C 77 % 1029 hPa 0,0 l/m 29,3 km/h (5 Bft) W45 270 0 min 25,2 klux 0,00 min 3,7 C -2,7 C
04.11.2006 13:45 7,4 C 8,8 C 77 % 1029 hPa 0,0 l/m 27,8 km/h (4 Bft) W45 280 15 min 64,4 klux 0,00 min 3,6 C -2,5 C
04.11.2006 14:00 8,4 C 10,8 C 73 % 1029 hPa 0,0 l/m 24,0 km/h (4 Bft) W-SW45 255 15 min 64,3 klux 0,00 min 3,8 C -0,1 C
04.11.2006 14:15 7,9 C 9,6 C 75 % 1029 hPa 0,0 l/m 33,4 km/h (5 Bft) W22.5 270 15 min 58,6 klux 0,00 min 3,7 C -3,0 C
04.11.2006 14:30 8,0 C 9,8 C 75 % 1029 hPa 0,0 l/m 22,1 km/h (4 Bft) W45 275 15 min 56,0 klux 0,00 min 3,8 C -0,0 C
04.11.2006 14:45 7,1 C 7,9 C 74 % 1029 hPa 0,0 l/m 22,0 km/h (4 Bft) W22.5 270 0 min 35,8 klux 0,00 min 2,8 C -1,2 C
04.11.2006 15:00 6,8 C 8,3 C 76 % 1029 hPa 0,0 l/m 17,5 km/h (3 Bft) W22.5 275 0 min 35,8 klux 0,00 min 2,9 C 0,1 C
04.11.2006 15:16 6,4 C 6,9 C 76 % 1029 hPa 0,0 l/m 24,1 km/h (4 Bft) W45 275 0 min 7,00 klux 0,00 min 2,5 C -2,8 C
04.11.2006 15:31 6,1 C 6,7 C 77 % 1029 hPa 0,0 l/m 22,3 km/h (4 Bft) W22.5 275 0 min 13,2 klux 0,00 min 2,4 C -2,6 C
04.11.2006 15:45 6,1 C 8,1 C 77 % 1029 hPa 0,0 l/m 26,7 km/h (4 Bft) W22.5 265 0 min 13,1 klux 0,00 min 2,4 C -4,0 C
04.11.2006 16:00 6,4 C 8,5 C 77 % 1028 hPa 0,0 l/m 26,5 km/h (4 Bft) W22.5 270 0 min 8,79 klux 0,00 min 2,7 C -3,5 C
04.11.2006 16:15 6,2 C 7,1 C 77 % 1029 hPa 0,0 l/m 22,9 km/h (4 Bft) W45 275 0 min 6,65 klux 0,00 min 2,5 C -2,7 C
04.11.2006 16:30 5,8 C 5,4 C 77 % 1029 hPa 0,0 l/m 18,4 km/h (3 Bft) W22.5 275 0 min 4,11 klux 0,00 min 2,1 C -1,5 C
04.11.2006 16:45 5,4 C 4,7 C 79 % 1029 hPa 0,0 l/m 15,3 km/h (3 Bft) W22.5 275 0 min 2,86 klux 0,00 min 2,1 C -0,6 C
04.11.2006 17:00 4,6 C 3,5 C 79 % 1029 hPa 0,0 l/m 9,8 km/h (2 Bft) W22.5 270 0 min 1,84 klux 0,00 min 1,3 C 1,8 C
04.11.2006 17:15 4,1 C 2,6 C 80 % 1029 hPa 0,0 l/m 8,9 km/h (2 Bft) W22.5 260 0 min 762 lux 0,00 min 1,0 C 1,9 C
04.11.2006 17:30 3,5 C 2,1 C 81 % 1029 hPa 0,0 l/m 11,1 km/h (2 Bft) W22.5 275 0 min 156 lux 0,00 min 0,6 C -0,4 C
04.11.2006 17:45 3,0 C 1,4 C 82 % 1029 hPa 0,0 l/m 5,2 km/h (1 Bft) W 260 0 min 22 lux 0,00 min 0,2 C 3,0 C
04.11.2006 18:00 2,4 C 1,0 C 82 % 1029 hPa 0,0 l/m 6,1 km/h (2 Bft) W-SW 255 0 min 3 lux 0,00 min -0,4 C 2,4 C
04.11.2006 18:15 2,1 C 0,6 C 84 % 1029 hPa 0,0 l/m 3,1 km/h (1 Bft) W 260 0 min 0 lux 0,00 min -0,3 C 2,1 C
04.11.2006 18:30 1,9 C 0,3 C 85 % 1029 hPa 0,0 l/m 0,4 km/h (0 Bft) W 265 0 min 0 lux 0,00 min -0,3 C 1,9 C
04.11.2006 18:45 1,6 C 0,0 C 85 % 1029 hPa 0,0 l/m 0,0 km/h (0 Bft) W 265 0 min 0 lux 0,00 min -0,6 C 1,6 C
04.11.2006 19:00 1,5 C 0,0 C 86 % 1029 hPa 0,0 l/m 0,0 km/h (0 Bft) W 265 0 min 0 lux 0,00 min -0,6 C 1,5 C
04.11.2006 19:15 1,6 C 0,5 C 87 % 1029 hPa 0,0 l/m 0,0 km/h (0 Bft) W 265 0 min 0 lux 0,00 min -0,3 C 1,6 C
04.11.2006 19:30 1,9 C 0,9 C 88 % 1029 hPa 0,0 l/m 0,6 km/h (0 Bft) W 265 0 min 0 lux 0,00 min 0,1 C 1,9 C
04.11.2006 19:45 2,3 C 1,3 C 88 % 1029 hPa 0,0 l/m 0,0 km/h (0 Bft) W 260 0 min 0 lux 0,00 min 0,5 C 2,3 C
04.11.2006 20:01 2,5 C 1,2 C 88 % 1029 hPa 0,0 l/m 1,8 km/h (1 Bft) W-SW 250 0 min 0 lux 0,00 min 0,7 C 2,5 C
04.11.2006 20:16 2,6 C 1,7 C 88 % 1029 hPa 0,0 l/m 3,4 km/h (1 Bft) W-SW 250 0 min 0 lux 0,00 min 0,8 C 2,6 C
04.11.2006 20:30 2,8 C 2,1 C 88 % 1029 hPa 0,0 l/m 5,4 km/h (1 Bft) W-SW 250 0 min 0 lux 0,00 min 1,0 C 2,8 C
04.11.2006 20:45 3,0 C 2,5 C 89 % 1029 hPa 0,0 l/m 5,6 km/h (1 Bft) W-SW 250 0 min 0 lux 0,00 min 1,4 C 3,0 C
04.11.2006 21:00 3,3 C 2,8 C 89 % 1029 hPa 0,0 l/m 11,2 km/h (2 Bft) W22.5 260 0 min 0 lux 0,00 min 1,7 C -0,7 C
04.11.2006 21:15 3,4 C 2,6 C 89 % 1029 hPa 0,0 l/m 17,5 km/h (3 Bft) W22.5 265 0 min 0 lux 0,00 min 1,8 C -4,1 C
04.11.2006 21:30 3,5 C 2,8 C 89 % 1029 hPa 0,0 l/m 16,6 km/h (3 Bft) W22.5 265 0 min 0 lux 0,00 min 1,9 C -3,6 C
04.11.2006 21:45 3,6 C 3,2 C 89 % 1028 hPa 0,0 l/m 18,8 km/h (3 Bft) W22.5 260 0 min 0 lux 0,00 min 2,0 C -4,5 C
04.11.2006 22:00 3,8 C 3,4 C 89 % 1028 hPa 0,0 l/m 17,8 km/h (3 Bft) W-SW22.5 255 0 min 0 lux 0,00 min 2,2 C -3,8 C
04.11.2006 22:15 3,8 C 3,4 C 89 % 1028 hPa 0,0 l/m 14,1 km/h (3 Bft) W45 260 0 min 0 lux 0,00 min 2,2 C -1,9 C
04.11.2006 22:30 3,8 C 3,3 C 89 % 1028 hPa 0,0 l/m 15,8 km/h (3 Bft) W45 275 0 min 0 lux 0,00 min 2,2 C -2,8 C
04.11.2006 22:45 3,9 C 3,2 C 90 % 1028 hPa 0,0 l/m 17,8 km/h (3 Bft) W22.5 275 0 min 0 lux 0,00 min 2,4 C -3,6 C
04.11.2006 23:00 3,6 C 2,8 C 89 % 1028 hPa 0,0 l/m 17,5 km/h (3 Bft) W22.5 275 0 min 0 lux 0,00 min 2,0 C -3,9 C
04.11.2006 23:15 3,5 C 3,0 C 90 % 1028 hPa 0,0 l/m 21,6 km/h (4 Bft) W45 275 0 min 0 lux 0,00 min 2,0 C -5,8 C
04.11.2006 23:30 3,8 C 3,4 C 90 % 1028 hPa 0,0 l/m 16,0 km/h (3 Bft) W22.5 275 0 min 0 lux 0,00 min 2,3 C -2,9 C
04.11.2006 23:45 4,0 C 3,5 C 90 % 1028 hPa 0,0 l/m 19,9 km/h (4 Bft) W22.5 275 0 min 0 lux 0,00 min 2,5 C -4,4 C
_ Min-Zeit 19:00 18:45 14:00 00:00 - 04:39 - - - - - 18:45 23:15
Minimum _ 1,5 C 0,0 C 73 % 1028 hPa - 0,0 km/h (0 Bft) - - - - - -0,6 C -5,8 C
_ Max-Zeit 12:15 14:00 07:24 08:15 00:00 14:15 - - 12:00 13:45 00:00 12:00 02:31
Maximum _ 9,1 C 10,8 C 93 % 1030 hPa 0,0 l/m 33,4 km/h
W (5 Bft)
- - 15 min 64,4 klux 0,00 min 5,9 C 4,4 C
Durchschnitt _ 4,8 C 4,4 C 86 % 1029 hPa #0,0 l/m 12,6 km/h (3 Bft) W - #1:30 h 9,0 klux #0 min. 2,7 C 0,6 C